星链-31725 (STARLINK-31725 )

导读 | 星芒AI

STARLINK-31725 是 SpaceX Starlink 项目中的一颗低轨通信卫星,属于第三代星链卫星(v1.5 或 v2 版本)。它于2023年发射,部署在约550公里高度的近地轨道,旨在为全球提供高速互联网服务。该卫星采用先进推进系统和激光通信技术,支持更广覆盖和更低延迟。作为星链星座的一部分,STARLINK-31725 有助于提升偏远地区的网络接入能力,并增强整体星座的冗余与稳定性。

基本信息
目录编号:
59538
目录名称:
STARLINK-31725
国际标识:
2024-074E
轨道中心:
EARTH
卫星名称:
星链-31725
卫星全名:
星链-31725 (STARLINK-31725 )
卫星状态:
在轨 (已飞行611 天)
发射日期:
2024-04-18 UTC
国别 :
美国 (US)
星等 :
--
轨道信息
数据来源 国际轨道数据 AOE轨道数据
星历时间 2025-12-19T22:04:32+0800
12小时前
查看轨道信息
2025-12-15T10:00:00+0800
5天前
查看轨道信息
半长轴 6861.207km 6861.185km
偏心率 0.0001172 0.0001278
轨道倾角 43.002° 43.003°
近地点辐角 268.416° 276.194°
升交点赤经 65.236° 90.668°
平近点角 91.655° 130.754°
近地点 482.265km 482.173km
远地点 483.875km 483.927km
周期 94.267分钟 94.267分钟
每日圈数 15.275731 15.275805
详细信息
固有亮度:
5
最大亮度:
1.5
卫星平台:
Starlink v2.0 mini
覆盖范围:
全球
运营商:
太空探索技术公司
运营商所在国:
美国
制造商(研发单位):
太空探索技术公司
制造商所在国:
美国
使用方式:
暂无
卫星简介
星链(Starlink)计划是由太空探索技术公司(SpaceX)提出的一个巨型低轨卫星互联网星座项目,计划在2019年至2024年间在太空搭建由约1.2万颗卫星组成的“星链”网络,其中1584颗将部署在地球上空550千米处的近地轨道,并从2020年开始工作。该卫星仍在工作。
2D轨道图
3D轨道图
轨道高度分析图
轨道倾角分析图
轨道综合分析图
查看轨道综合分析图